Wind_Speed
13 12 11 11 10 8 7 6 7 7 6 6 7 8 9 9 10 11 11 12 13 13 14 14 14 14 13 12 10 8 7 6 6 7 7 7 7 7 7 8 9 9 9 8
15 14 13 12 11 10 8 8 8 8 7 7 7 8 9 10 11 11 11 11 12 13 14 14 14 14 13 12 10 9 7 6 6 6 6 7 8 7 8 8 8 9 9 8
16 16 15 13 12 11 10 10 10 9 8 8 8 8 10 11 11 11 11 11 12 13 14 14 14 14 13 11 10 9 6 5 6 6 6 7 8 7 8 8 9 9 9 9
19 18 16 15 14 13 13 12 11 9 9 10 8 7 12 11 11 11 11 11 12 13 14 14 14 13 13 12 10 8 4 4 5 5 6 7 7 7 8 9 8 8 9 10
20 19 18 17 16 15 15 13 12 10 10 10 11 8 10 11 11 12 12 12 12 13 13 14 13 12 11 10 9 7 4 4 5 5 6 7 7 7 7 8 8 8 9 10
22 20 19 18 18 16 15 14 13 12 11 11 11 9 9 11 11 12 12 12 12 13 13 13 13 11 10 9 8 5 2 2 3 4 5 6 6 6 6 7 8 8 8 9
22 21 21 20 19 17 16 14 12 11 11 12 12 10 10 11 11 11 12 11 12 12 13 13 12 11 10 8 7 4 2 2 2 4 5 5 6 6 7 7 7 8 9 9
24 23 22 21 20 19 17 15 13 11 10 12 13 10 11 11 11 11 11 12 12 12 12 11 11 11 9 8 6 4 3 3 3 4 5 5 5 5 6 7 7 9 9 9
25 25 23 22 22 21 19 17 15 15 14 12 12 11 11 10 11 11 11 11 11 10 10 11 11 10 8 7 5 4 4 4 3 4 4 4 4 5 5 6 7 8 10 10
26 26 24 23 23 22 21 19 18 15 13 11 12 11 11 11 10 11 10 10 9 9 9 9 10 9 7 5 4 4 5 4 4 4 4 4 5 5 6 6 7 7 8 10
27 26 26 24 24 23 21 20 19 17 15 11 10 11 12 11 10 10 9 9 9 9 9 9 9 8 7 5 4 5 5 4 4 3 4 5 6 7 7 8 8 9 9 10
27 26 26 25 25 24 22 21 19 18 17 14 11 13 13 12 11 10 10 9 9 9 9 9 9 8 7 6 6 6 5 5 5 5 5 6 7 8 9 10 10 10 10 11
27 27 25 25 25 24 22 21 20 18 18 16 12 13 14 12 11 11 10 10 9 9 9 9 9 8 8 7 7 7 6 6 6 6 7 8 8 9 10 11 11 12 12 12
28 27 25 22 22 23 22 21 20 19 17 16 14 15 15 13 12 12 12 11 10 10 10 10 9 8 8 9 8 8 8 8 8 8 9 9 10 11 12 12 12 13 13 12
27 26 25 25 25 24 22 22 21 20 19 17 16 16 15 14 13 13 12 12 11 11 11 11 10 10 10 10 10 9 9 9 9 10 10 11 11 12 12 12 13 13 13 14
26 26 25 25 25 25 24 23 23 22 20 19 18 17 16 15 15 14 13 13 12 12 12 12 12 12 11 11 11 10 10 10 10 10 11 11 11 12 12 13 13 14 14 15
27 26 25 25 25 25 26 25 24 23 21 20 18 18 17 17 16 15 14 14 13 13 14 14 14 14 13 13 12 11 11 12 12 12 13 12 12 12 13 13 14 14 15 16
28 27 26 25 26 25 25 25 24 23 22 21 21 20 20 19 18 16 15 15 15 15 15 15 15 14 14 14 14 13 14 14 14 14 14 14 14 14 15 15 15 16 16 17
29 28 27 27 26 26 27 25 24 24 24 23 22 21 21 20 19 18 17 17 17 16 16 15 15 15 15 15 15 16 16 16 16 16 15 15 15 15 15 16 17 17 18 18
31 30 29 28 26 24 25 24 23 24 25 24 23 22 22 21 21 20 19 19 19 18 18 17 17 16 16 16 17 17 17 17 18 18 18 18 18 17 18 18 18 19 19 20
33 32 31 30 28 27 28 24 23 25 25 24 24 23 23 23 23 22 22 21 21 21 20 19 19 18 18 18 18 18 19 19 19 19 20 20 19 20 20 20 20 21 22 22
33 33 33 32 31 31 30 26 26 26 26 25 25 25 25 24 23 23 23 23 23 23 22 21 21 20 20 20 20 20 20 20 21 21 21 22 21 21 22 22 23 23 23 24
35 35 34 34 33 33 31 29 27 27 27 27 26 26 26 25 24 24 24 24 24 24 24 24 23 23 23 23 23 22 22 22 23 23 24 24 24 23 24 25 25 25 25 25
36 35 35 35 35 34 33 31 29 29 28 28 28 27 27 26 26 25 25 25 25 25 25 25 25 25 25 24 25 25 25 25 25 26 26 25 25 25 26 27 27 27 26 27
35 35 35 35 35 35 34 33 31 31 31 30 29 29 28 28 27 27 26 26 26 26 26 26 27 27 27 27 26 27 27 27 27 27 27 27 27 27 28 28 28 27 27 28
34 35 35 35 35 35 34 33 33 32 32 31 31 30 30 29 29 29 28 28 28 28 28 28 27 27 28 28 28 29 29 29 28 28 28 28 28 29 29 29 28 29 29 29
Wind_Direction
231 233 236 240 245 250 258 269 282 301 317 324 323 319 322 325 325 326 326 329 330 331 334 336 336 332 329 327 319 306 284 262 243 229 222 215 212 217 213 210 209 211 211 212
233 236 238 243 248 252 257 265 277 294 310 316 320 318 318 321 323 323 323 326 329 330 330 333 337 335 331 328 323 308 289 251 232 217 218 217 216 213 212 212 213 216 215 214
235 237 240 243 246 249 252 257 269 288 306 310 315 316 314 319 321 320 320 322 327 330 331 331 333 334 333 331 325 317 288 240 221 215 223 219 220 218 216 217 219 219 219 218
236 238 239 242 245 247 250 258 269 284 296 298 308 300 306 314 316 315 316 319 324 328 332 330 331 333 331 333 328 325 296 234 210 214 230 229 221 221 223 224 225 228 228 226
237 238 239 241 243 245 249 258 267 280 289 295 301 300 295 307 309 309 311 314 320 325 327 328 329 331 330 333 331 327 298 243 218 219 228 224 222 225 226 226 223 233 233 230
237 238 239 241 244 246 251 258 267 277 284 287 292 296 293 299 304 305 306 308 316 322 324 326 327 329 329 333 336 329 303 238 216 222 222 224 225 224 225 225 226 232 234 234
238 239 240 241 243 245 247 253 263 272 278 280 289 292 287 295 299 302 302 305 314 320 323 324 325 326 326 325 326 328 308 275 240 234 225 228 224 225 225 228 234 236 236 237
237 240 241 241 241 243 243 245 248 254 266 278 288 289 292 296 297 298 300 303 310 317 320 321 322 321 320 319 317 312 299 270 252 240 233 227 227 227 233 239 243 243 241 239
235 240 240 240 240 241 242 242 246 254 261 268 278 288 293 293 297 299 299 303 307 311 314 317 321 323 320 316 308 304 295 275 254 247 243 236 245 246 249 249 252 254 248 246
233 238 239 238 239 240 241 242 246 249 256 262 275 283 283 289 292 299 297 301 305 308 312 318 322 325 323 319 311 308 290 277 271 261 249 251 257 259 262 263 258 267 259 252
232 234 238 237 237 239 240 242 245 247 251 253 266 273 276 283 287 290 292 297 299 304 309 312 320 322 320 314 301 301 299 278 277 265 255 257 259 260 264 272 271 272 269 261
231 232 235 236 237 237 238 240 243 247 254 256 250 263 271 275 281 285 287 291 295 300 302 304 313 316 314 310 305 299 297 276 267 268 264 264 266 265 268 275 278 277 274 270
229 230 232 236 238 237 238 241 244 247 251 254 250 259 265 266 273 279 282 286 291 296 297 295 303 308 310 307 307 301 294 285 275 271 269 270 273 274 274 275 276 275 274 273
227 229 227 229 237 239 239 242 244 246 248 253 249 248 260 262 267 272 274 278 284 289 293 292 294 299 304 306 304 297 294 289 282 276 273 272 275 276 275 274 271 270 270 273
225 227 227 227 232 236 238 239 242 243 244 245 249 249 255 260 265 268 268 272 278 283 287 287 289 293 295 299 301 294 290 290 288 282 281 282 282 279 274 273 272 272 273 276
225 226 227 230 233 234 236 238 242 243 244 244 245 248 252 260 263 266 267 268 272 277 281 283 287 292 293 295 297 291 289 288 287 287 286 286 286 284 279 279 279 278 276 278
225 226 227 231 233 233 235 238 240 243 243 243 245 248 252 258 262 263 264 265 269 271 277 281 284 287 291 290 288 285 286 287 289 290 290 291 290 288 285 283 282 281 280 279
225 225 227 229 231 232 237 237 238 240 242 243 245 247 251 255 257 258 260 262 266 270 273 276 279 281 286 287 283 283 282 286 288 290 291 294 292 287 284 281 282 282 280 281
225 225 227 230 234 237 239 237 237 240 243 245 247 248 250 252 254 255 256 258 261 267 270 272 274 276 281 284 283 282 281 282 283 285 287 288 289 288 286 286 284 283 283 284
226 227 229 230 231 236 242 237 237 241 244 245 247 248 249 250 252 254 254 257 259 263 265 268 272 275 279 283 283 282 279 280 282 281 281 282 283 283 285 287 286 286 285 286
227 229 232 233 235 236 240 237 237 241 244 245 247 247 249 249 251 254 255 258 258 260 262 265 268 272 277 281 283 283 284 283 282 282 280 280 280 281 283 286 286 287 286 285
228 232 234 235 237 240 241 240 240 243 245 247 249 249 249 251 253 255 256 257 258 260 260 262 265 270 274 278 282 283 285 285 283 281 280 281 280 280 283 285 286 286 286 285
230 232 234 235 237 241 243 244 244 245 247 248 250 250 250 251 253 255 255 256 257 259 261 262 264 268 272 275 278 281 282 284 282 280 280 281 280 281 283 284 286 286 285 285
233 235 237 238 239 242 244 244 245 245 248 249 250 250 250 252 253 255 255 256 258 260 261 263 265 268 271 273 275 278 279 281 282 281 281 281 281 281 282 283 284 285 284 285
234 235 237 238 240 241 242 244 245 247 249 250 250 249 250 252 254 255 256 257 258 260 260 262 264 266 269 272 274 277 279 280 280 279 280 280 280 280 281 282 283 283 284 285
234 235 236 238 239 241 243 244 246 247 249 250 250 249 250 253 255 256 257 258 259 260 261 263 265 266 268 270 272 275 276 276 277 279 279 279 280 281 281 281 281 281 283 284
Height
5913 5916 5917 5918 5920 5921 5922 5923 5923 5923 5923 5923 5923 5922 5921 5919 5917 5916 5914 5912 5909 5907 5904 5902 5899 5896 5893 5891 5889 5888 5887 5887 5887 5888 5889 5890 5892 5893 5893 5894 5895 5897 5898 5899
5911 5913 5914 5916 5917 5919 5920 5921 5921 5921 5921 5922 5921 5920 5919 5917 5916 5914 5913 5911 5909 5906 5904 5901 5898 5895 5892 5890 5888 5885 5884 5884 5885 5887 5888 5889 5890 5891 5892 5893 5894 5896 5897 5898
5907 5910 5911 5913 5915 5916 5918 5919 5919 5920 5920 5920 5920 5920 5918 5916 5915 5913 5911 5909 5908 5905 5903 5900 5897 5894 5891 5888 5886 5883 5882 5883 5884 5885 5887 5888 5889 5890 5891 5892 5893 5895 5896 5897
5903 5906 5908 5910 5912 5913 5915 5916 5917 5918 5919 5919 5919 5920 5917 5915 5913 5911 5910 5908 5906 5904 5902 5899 5896 5893 5890 5888 5885 5882 5881 5882 5883 5885 5886 5887 5888 5889 5890 5891 5892 5893 5894 5895
5900 5902 5904 5907 5909 5910 5912 5913 5915 5915 5916 5917 5916 5917 5918 5913 5912 5910 5908 5906 5905 5903 5900 5897 5895 5892 5889 5887 5884 5882 5881 5882 5883 5884 5885 5886 5887 5888 5889 5890 5891 5892 5893 5893
5896 5898 5901 5903 5905 5907 5909 5911 5912 5913 5914 5915 5914 5914 5914 5911 5910 5908 5906 5904 5903 5901 5898 5896 5893 5891 5889 5886 5884 5881 5881 5882 5883 5884 5884 5885 5885 5886 5887 5888 5889 5890 5891 5892
5892 5894 5896 5899 5901 5904 5906 5909 5911 5912 5913 5913 5911 5911 5911 5909 5907 5906 5904 5903 5901 5899 5897 5895 5892 5890 5888 5886 5884 5882 5882 5882 5883 5883 5883 5884 5884 5885 5886 5887 5888 5889 5889 5890
5888 5890 5893 5895 5898 5900 5902 5906 5909 5911 5913 5911 5908 5908 5908 5906 5905 5903 5902 5901 5899 5897 5895 5893 5891 5889 5887 5885 5884 5883 5882 5882 5882 5882 5882 5883 5883 5884 5885 5886 5886 5887 5888 5888
5883 5886 5888 5891 5893 5896 5898 5901 5905 5906 5907 5908 5907 5906 5905 5904 5902 5901 5900 5899 5897 5896 5894 5892 5890 5887 5885 5884 5883 5882 5882 5882 5881 5882 5882 5882 5882 5883 5884 5884 5884 5884 5885 5886
5877 5881 5883 5886 5889 5891 5895 5897 5899 5902 5903 5906 5906 5904 5904 5901 5900 5899 5898 5897 5896 5894 5893 5891 5889 5887 5884 5883 5882 5882 5881 5881 5881 5881 5881 5881 5882 5882 5882 5882 5882 5882 5882 5883
5873 5877 5879 5882 5884 5887 5890 5893 5895 5898 5900 5902 5905 5905 5900 5899 5898 5897 5896 5895 5894 5893 5891 5890 5888 5886 5884 5883 5882 5881 5880 5880 5880 5880 5880 5880 5881 5881 5881 5881 5880 5880 5880 5880
5867 5871 5874 5877 5879 5882 5885 5888 5891 5894 5895 5897 5900 5903 5897 5896 5896 5895 5894 5893 5892 5891 5890 5889 5887 5886 5884 5883 5882 5880 5879 5879 5879 5879 5879 5879 5879 5879 5879 5879 5879 5878 5878 5878
5862 5866 5870 5872 5876 5878 5881 5883 5886 5889 5891 5893 5896 5899 5894 5894 5893 5893 5892 5891 5890 5890 5888 5887 5886 5885 5883 5882 5881 5880 5879 5878 5877 5877 5877 5877 5877 5877 5876 5876 5876 5876 5875 5875
5857 5861 5866 5871 5872 5873 5876 5879 5881 5884 5887 5889 5891 5892 5891 5890 5890 5890 5889 5889 5888 5887 5886 5885 5884 5883 5882 5881 5879 5878 5877 5877 5876 5876 5875 5875 5874 5874 5873 5873 5873 5873 5872 5872
5851 5855 5859 5863 5865 5868 5871 5874 5876 5879 5882 5885 5886 5886 5887 5887 5887 5886 5886 5886 5886 5885 5884 5883 5882 5881 5880 5879 5878 5877 5876 5875 5874 5874 5873 5872 5871 5870 5870 5869 5869 5869 5869 5869
5846 5850 5854 5857 5860 5863 5866 5869 5871 5874 5876 5879 5880 5881 5882 5882 5883 5883 5883 5883 5883 5882 5881 5881 5880 5879 5878 5877 5875 5874 5874 5873 5872 5871 5870 5869 5868 5867 5866 5866 5866 5866 5865 5865
5840 5845 5849 5852 5855 5857 5861 5864 5866 5869 5871 5874 5876 5877 5877 5878 5879 5879 5879 5879 5879 5878 5878 5877 5877 5876 5875 5874 5873 5872 5871 5870 5869 5868 5867 5866 5865 5864 5864 5863 5863 5862 5861 5861
5835 5839 5843 5847 5850 5853 5857 5858 5861 5864 5866 5868 5870 5871 5872 5873 5874 5874 5875 5875 5875 5874 5874 5874 5873 5873 5872 5871 5870 5869 5868 5868 5867 5866 5865 5863 5862 5862 5861 5860 5859 5858 5857 5856
5829 5833 5838 5841 5844 5848 5850 5853 5856 5858 5860 5862 5864 5865 5866 5868 5869 5869 5870 5870 5870 5870 5870 5870 5870 5869 5868 5868 5867 5866 5865 5864 5863 5862 5861 5860 5859 5858 5857 5856 5855 5854 5853 5852
5822 5827 5832 5835 5839 5843 5845 5847 5850 5853 5854 5856 5857 5859 5860 5862 5864 5865 5865 5865 5865 5865 5865 5865 5865 5865 5864 5864 5863 5862 5861 5860 5859 5858 5857 5856 5855 5854 5854 5852 5851 5850 5849 5847
5815 5819 5824 5828 5832 5835 5836 5840 5844 5847 5848 5849 5851 5852 5854 5855 5857 5858 5859 5859 5860 5860 5860 5860 5860 5860 5860 5859 5858 5857 5856 5855 5854 5853 5852 5852 5850 5850 5849 5848 5846 5845 5843 5842
5808 5812 5816 5821 5825 5829 5829 5833 5836 5839 5840 5842 5844 5846 5847 5849 5850 5851 5852 5853 5854 5854 5855 5855 5855 5855 5855 5854 5853 5853 5851 5850 5849 5848 5847 5846 5845 5844 5844 5842 5841 5839 5838 5836
5800 5804 5808 5812 5817 5819 5822 5825 5828 5830 5833 5834 5836 5838 5840 5842 5843 5844 5845 5846 5847 5848 5848 5848 5849 5849 5849 5848 5848 5847 5846 5845 5843 5842 5841 5840 5839 5838 5837 5836 5834 5833 5831 5829
5791 5796 5800 5804 5807 5810 5814 5817 5820 5822 5824 5827 5829 5831 5833 5834 5836 5837 5838 5839 5840 5841 5842 5842 5842 5842 5842 5842 5841 5841 5840 5839 5837 5836 5835 5834 5832 5832 5830 5829 5827 5826 5824 5822
5783 5787 5791 5794 5798 5802 5804 5808 5811 5814 5816 5818 5821 5823 5825 5827 5828 5830 5831 5832 5833 5834 5834 5835 5835 5835 5835 5835 5835 5834 5833 5832 5831 5829 5828 5827 5826 5825 5823 5822 5820 5818 5817 5815
5774 5778 5782 5786 5789 5793 5796 5799 5802 5805 5807 5810 5812 5815 5817 5819 5820 5822 5823 5824 5825 5826 5827 5827 5827 5827 5828 5828 5827 5827 5826 5825 5824 5822 5821 5820 5818 5817 5816 5814 5812 5810 5809 5807